Flight Track Log - Related Links

Times and Time Zones

All times are in EDT time to prevent confusion due to time zone crossing. See the ASQ5958 flight status page for this flight to view local times or setup timezone preferences in your user account.

Time Position Orientation Groundspeed Altitude Reporting Facility
EDT Latitude Longitude Course Direction KTS MPH feet Rate Location/Type
06:38PM 41.9167 -87.9167 154° Southeast 202 232 2,600  Level Chicago TRACON
06:39PM 41.8667 -87.8833 154° Southeast 252 290 4,400 2,056 Climbing Chicago TRACON
06:40PM 41.8103 -87.8525 158° South 257 296 6,300 2,587 Climbing Chicago Center
06:41PM 41.7389 -87.8031 153° Southeast 286 329 9,100 2,661 Climbing Chicago Center
06:42PM 41.6667 -87.7503 151° Southeast 294 338 11,800 1,887 Climbing Chicago Center
06:43PM 41.5892 -87.6922 151° Southeast 317 365 13,000 1,210 Climbing Chicago Center
06:44PM 41.4992 -87.6267 151° Southeast 360 414 14,300 1,500 Climbing Chicago Center
06:45PM 41.4033 -87.5664 155° Southeast 380 437 16,100 1,790 Climbing Chicago Center
06:46PM 41.2833 -87.5097 160° South 380 437 18,000 1,597 Climbing Chicago Center
06:47PM 41.1811 -87.4608 160° South 387 445 19,400 1,355 Climbing Chicago Center
06:48PM 41.0756 -87.4108 160° South 398 458 20,800 1,488 Climbing Chicago Center
06:49PM 40.9689 -87.3606 160° South 405 466 22,500 1,776 Climbing Chicago Center
06:50PM 40.8644 -87.3111 160° South 403 464 24,500 2,081 Climbing Chicago Center
06:51PM 40.7431 -87.2533 160° South 392 451 26,800 1,887 Climbing Chicago Center
06:52PM 40.6431 -87.2075 161° South 383 441 28,400 1,403 Climbing Chicago Center
06:53PM 40.5436 -87.1611 160° South 382 440 29,700 1,258 Climbing Chicago Center
06:54PM 40.4419 -87.1131 160° South 390 449 31,000 1,403 Climbing Chicago Center
06:55PM 40.3400 -87.0661 161° South 392 451 32,600 1,306 Climbing Chicago Center
06:56PM 40.2183 -87.0078 160° South 389 448 33,700 677 Climbing Chicago Center
06:57PM 40.1150 -86.9608 161° South 392 451 34,000 153 Climbing Chicago Center
06:58PM 40.0247 -86.9186 160° South 418 481 34,000  Level Indianapolis Center
06:59PM 39.8892 -86.8294 153° Southeast 460 529 34,000 339 Level Indianapolis Center
07:00PM 39.7661 -86.7764 162° South 469 540 34,700 484 Climbing Indianapolis Center
07:01PM 39.6522 -86.7003 153° Southeast 470 541 35,000 145 Climbing Indianapolis Center
07:02PM 39.5372 -86.6156 150° Southeast 480 552 35,000  Level Indianapolis Center
07:04PM 39.4244 -86.5317 150° Southeast 475 547 35,000  Level Indianapolis Center
07:05PM 39.2900 -86.4319 150° Southeast 472 543 35,000  Level Indianapolis Center
07:06PM 39.1775 -86.3483 150° Southeast 470 541 35,000  Level Indianapolis Center
07:07PM 39.0658 -86.2656 150° Southeast 468 539 35,000  Level Indianapolis Center
07:08PM 38.9525 -86.1839 151° Southeast 468 539 35,000  Level Indianapolis Center
07:09PM 38.8364 -86.0986 150° Southeast 472 543 35,000  Level Indianapolis Center
07:10PM 38.7197 -86.0139 150° Southeast 476 548 35,000  Level Indianapolis Center
07:11PM 38.5792 -85.9111 150° Southeast 481 554 35,000  Level Indianapolis Center
07:12PM 38.4597 -85.8253 151° Southeast 486 559 35,000 -97 Level Indianapolis Center
07:13PM 38.3414 -85.7411 151° Southeast 484 557 34,800 -532 Descending Indianapolis Center
07:14PM 38.2247 -85.6561 150° Southeast 481 554 33,900 -919 Descending Indianapolis Center
07:15PM 38.1053 -85.5714 151° Southeast 486 559 32,900 -968 Descending Indianapolis Center
07:16PM 37.9861 -85.4875 151° Southeast 487 560 31,900 -823 Descending Indianapolis Center
07:17PM 37.8686 -85.4050 151° Southeast 481 554 31,200 -435 Descending Indianapolis Center
07:18PM 37.7467 -85.3144 150° Southeast 468 539 31,000 -98 Descending Indianapolis Center
07:19PM 37.6325 -85.2369 152° Southeast 466 536 31,000 -195 Level Indianapolis Center
07:20PM 37.5025 -85.1467 151° Southeast 458 527 30,600 -677 Descending Indianapolis Center
07:21PM 37.3908 -85.0678 151° Southeast 459 528 29,600 -968 Descending Indianapolis Center
07:22PM 37.2794 -84.9906 151° Southeast 459 528 28,600 -919 Descending Indianapolis Center
07:23PM 37.1675 -84.9133 151° Southeast 460 529 27,700 -919 Descending Indianapolis Center
07:24PM 37.0553 -84.8361 151° Southeast 461 531 26,700 -968 Descending Indianapolis Center
07:25PM 36.9433 -84.7586 151° Southeast 463 533 25,700 -1,512 Descending Indianapolis Center
07:26PM 36.8089 -84.6667 151° Southeast 459 528 23,600 -2,390 Descending Indianapolis Center
07:27PM 36.6983 -84.5914 151° Southeast 452 520 20,800 -2,806 Descending Indianapolis Center
07:28PM 36.5942 -84.5208 151° Southeast 430 495 17,800 -2,855 Descending Indianapolis Center
07:29PM 36.4961 -84.4536 151° Southeast 407 468 14,900 -2,661 Descending Indianapolis Center
07:30PM 36.3992 -84.3881 151° Southeast 398 458 12,300 -1,943 Descending Indianapolis Center
07:31PM 36.3250 -84.3403 153° Southeast 392 451 11,500 -757 Descending Atlanta Center
07:32PM 36.2311 -84.2781 152° Southeast 387 445 11,000 -500 Descending Atlanta Center
07:33PM 36.1625 -84.1878 133° Southeast 368 423 10,500 -900 Descending Atlanta Center
07:34PM 36.1147 -84.1031 125° Southeast 333 383 9,200 -1,550 Descending Atlanta Center
07:35PM 36.0603 -84.0258 131° Southeast 306 352 7,400 -1,800 Descending Atlanta Center
07:36PM 35.9914 -83.9772 150° Southeast 287 330 5,600 -1,950 Descending Atlanta Center
07:37PM 35.9269 -83.9361 153° Southeast 274 315 3,500 -1,600 Descending Atlanta Center
07:38PM 35.8725 -83.9131 161° South 259 298 2,400 -850 Descending Atlanta Center
07:39PM 35.8392 -83.9542 225° Southwest 179 206 1,800 -600 Descending Atlanta Center

Login

Don't have an account? Register now (free) for customized features, flight alerts, and more!